Date String (YYYY-MM-DD hh:mm:ss) UTC,Instrument flags,Ambient pressure (hPa),Sample flow (lpm),Bypass flow (lpm),Sample temperature (°C),Ambient temperature (°C),ASC tube jacket temperature (°C),LED temperature (°C),Box temperature (°C),Sample RH (%),Span deviation,Mass concentration (μg/m³),Mass concentration (μg/m³),Mass concentration (μg/m³)
DateTimeUTC,F1_M11,P_M11,Q1_M11,Q2_M11,T1_M11,T2_M11,T3_M11,T4_M11,T5_M11,U1_M11,ZSPAN_M11,X2_M11,X0_M11,X1_M11
2023-01-28 20:00:00,,0817.7,5.02,0.00,22.1,20.5,00.0,31.1,23.8,14.1,0000.0,0007.17,0009.71,0006.88
2023-01-28 20:01:00,,0817.8,5.02,0.00,22.1,20.5,00.0,31.0,23.8,14.1,0000.0,0007.20,0010.09,0006.91
2023-01-28 20:02:00,,0817.7,4.98,0.00,22.1,20.5,00.0,31.0,23.8,14.1,0000.0,0007.24,0010.20,0006.94
2023-01-28 20:03:00,,0817.6,5.01,0.00,22.0,20.5,00.0,31.0,23.7,14.1,0000.0,0007.29,0010.28,0006.98
2023-01-28 20:04:00,,0817.6,4.98,0.00,22.0,20.4,00.0,31.0,23.7,14.0,0000.0,0007.32,0010.30,0007.00
2023-01-28 20:05:00,,0817.7,5.00,0.00,22.0,20.3,00.0,31.0,23.7,14.1,0000.0,0007.32,0010.32,0006.99
2023-01-28 20:06:00,,0817.6,5.00,0.00,22.0,20.3,00.0,31.0,23.7,14.2,0000.0,0007.31,0010.40,0006.98
2023-01-28 20:07:00,,0817.6,5.00,0.00,22.0,20.4,00.0,31.0,23.7,14.4,0000.0,0007.28,0010.27,0006.97
2023-01-28 20:08:00,,0817.6,5.02,0.00,22.0,21.4,00.0,30.9,23.9,14.3,0000.0,0007.25,0010.31,0006.97
2023-01-28 20:09:00,,0817.6,4.99,0.00,22.2,22.4,00.0,30.9,24.2,14.2,0000.0,0007.27,0010.56,0006.99
2023-01-28 20:10:00,,0817.5,5.00,0.00,22.2,22.3,00.0,31.0,24.2,14.1,0000.0,0007.28,0010.65,0007.01
2023-01-28 20:11:00,,0817.5,5.03,0.00,22.2,21.9,00.0,31.0,24.1,14.1,0000.0,0007.32,0010.66,0007.04
2023-01-28 20:12:00,,0817.5,5.00,0.00,22.2,21.6,00.0,31.0,24.1,14.1,0000.0,0007.38,0010.49,0007.07
2023-01-28 20:13:00,,0817.5,5.00,0.00,22.2,21.3,00.0,31.0,24.0,14.3,0000.0,0007.44,0010.55,0007.10
2023-01-28 20:14:00,,0817.6,4.99,0.00,22.2,21.1,00.0,31.1,24.0,14.3,0000.0,0007.46,0010.62,0007.12
2023-01-28 20:15:00,,0817.5,4.98,0.00,22.2,21.0,00.0,31.1,23.9,14.2,0000.0,0007.50,0010.72,0007.13
2023-01-28 20:16:00,,0817.5,5.02,0.00,22.2,20.9,00.0,31.1,23.9,14.1,0000.0,0007.55,0010.81,0007.17
2023-01-28 20:17:00,,0817.5,4.99,0.00,22.2,20.9,00.0,31.1,23.9,14.0,0000.0,0007.60,0010.85,0007.21
2023-01-28 20:18:00,,0817.5,4.98,0.00,22.2,20.8,00.0,31.1,23.9,14.1,0000.0,0007.68,0011.02,0007.26
2023-01-28 20:19:00,,0817.6,4.99,0.00,22.1,20.7,00.0,31.1,23.9,14.1,0000.0,0007.72,0011.37,0007.28
2023-01-28 20:20:00,,0817.5,5.00,0.00,22.1,20.7,00.0,31.1,23.9,14.1,0000.0,0007.74,0011.15,0007.29
2023-01-28 20:21:00,,0817.6,4.98,0.00,22.1,20.7,00.0,31.1,23.9,14.1,0000.0,0007.76,0011.17,0007.30
2023-01-28 20:22:00,,0817.6,5.00,0.00,22.1,20.7,00.0,31.1,23.9,14.1,0000.0,0007.78,0011.26,0007.30
2023-01-28 20:23:00,,0817.6,5.00,0.00,22.1,20.7,00.0,31.1,23.9,14.2,0000.0,0007.75,0011.10,0007.31
2023-01-28 20:24:00,,0817.6,5.02,0.00,22.1,20.7,00.0,31.0,23.9,14.2,0000.0,0007.73,0010.97,0007.31
2023-01-28 20:25:00,,0817.7,4.99,0.00,22.1,20.7,00.0,31.0,23.9,14.2,0000.0,0007.74,0010.99,0007.31
2023-01-28 20:26:00,,0817.6,4.98,0.00,22.1,20.7,00.0,31.0,23.9,14.1,0000.0,0007.73,0010.94,0007.31
2023-01-28 20:27:00,,0817.6,5.02,0.00,22.1,20.7,00.0,31.0,23.9,14.1,0000.0,0007.69,0010.83,0007.30
2023-01-28 20:28:00,,0817.7,4.97,0.00,22.1,20.7,00.0,31.0,23.9,14.1,0000.0,0007.70,0010.82,0007.31
2023-01-28 20:29:00,,0817.7,4.98,0.00,22.1,20.7,00.0,31.0,23.9,14.1,0000.0,0007.71,0010.80,0007.31
2023-01-28 20:30:00,,0817.7,4.99,0.00,22.1,20.7,00.0,31.0,23.9,14.2,0000.0,0007.72,0010.49,0007.31
2023-01-28 20:31:00,,0817.6,5.01,0.00,22.1,20.7,00.0,31.0,23.9,14.2,0000.0,0007.71,0010.40,0007.30
2023-01-28 20:32:00,,0817.6,5.01,0.00,22.1,20.7,00.0,31.0,23.9,14.2,0000.0,0007.71,0010.35,0007.31
2023-01-28 20:33:00,,0817.6,5.01,0.00,22.1,20.7,00.0,31.0,23.9,14.1,0000.0,0007.67,0010.26,0007.30
2023-01-28 20:34:00,,0817.6,4.99,0.00,22.1,20.7,00.0,31.0,23.9,14.0,0000.0,0007.66,0010.24,0007.28
2023-01-28 20:35:00,,0817.6,5.02,0.00,22.1,20.7,00.0,31.0,23.9,14.0,0000.0,0007.68,0010.29,0007.28
2023-01-28 20:36:00,,0817.6,5.01,0.00,22.1,20.7,00.0,31.0,23.9,14.0,0000.0,0007.66,0010.22,0007.27
2023-01-28 20:37:00,,0817.6,4.97,0.00,22.1,20.7,00.0,31.0,23.9,14.0,0000.0,0007.69,0010.29,0007.28
2023-01-28 20:38:00,,0817.6,5.00,0.00,22.1,20.7,00.0,31.0,23.9,14.0,0000.0,0007.67,0010.28,0007.27
2023-01-28 20:39:00,,0817.6,5.02,0.00,22.1,20.7,00.0,31.0,23.9,14.0,0000.0,0007.62,0010.22,0007.22
2023-01-28 20:40:00,,0817.6,5.00,0.00,22.1,21.0,00.0,31.0,24.0,14.0,0000.0,0007.54,0010.10,0007.15
2023-01-28 20:41:00,,0817.6,4.99,0.00,22.2,22.1,00.0,31.0,24.3,13.9,0000.0,0007.45,0009.97,0007.09
2023-01-28 20:42:00,,0817.6,4.99,0.00,22.4,22.6,00.0,31.0,24.4,14.0,0000.0,0007.35,0009.77,0007.03
2023-01-28 20:43:00,,0817.6,4.99,0.00,22.4,22.3,00.0,31.1,24.4,14.0,0000.0,0007.27,0009.65,0006.96
2023-01-28 20:44:00,,0817.6,5.00,0.00,22.4,22.0,00.0,31.1,24.3,13.9,0000.0,0007.20,0009.57,0006.89
2023-01-28 20:45:00,,0817.6,5.00,0.00,22.4,21.8,00.0,31.1,24.3,13.9,0000.0,0007.18,0009.60,0006.84
2023-01-28 20:46:00,,0817.6,5.00,0.00,22.4,21.6,00.0,31.2,24.2,13.9,0000.0,0007.11,0009.51,0006.78
2023-01-28 20:47:00,,0817.6,5.01,0.00,22.4,21.4,00.0,31.2,24.2,13.9,0000.0,0007.04,0009.37,0006.74
2023-01-28 20:48:00,,0817.6,4.99,0.00,22.4,21.3,00.0,31.2,24.2,13.8,0000.0,0006.97,0009.22,0006.69
2023-01-28 20:49:00,,0817.6,5.02,0.00,22.4,21.2,00.0,31.2,24.2,13.8,0000.0,0006.97,0009.25,0006.67
2023-01-28 20:50:00,,0817.6,5.01,0.00,22.4,21.1,00.0,31.2,24.2,13.8,0000.0,0006.97,0009.33,0006.68
2023-01-28 20:51:00,,0817.6,4.99,0.00,22.4,21.1,00.0,31.2,24.2,13.9,0000.0,0006.95,0009.29,0006.69
2023-01-28 20:52:00,,0817.7,5.01,0.00,22.4,21.0,00.0,31.2,24.2,13.8,0000.0,0006.98,0009.78,0006.70
2023-01-28 20:53:00,,0817.7,5.00,0.00,22.4,21.0,00.0,31.2,24.1,13.9,0000.0,0007.02,0009.84,0006.72
2023-01-28 20:54:00,,0817.6,5.01,0.00,22.4,20.9,00.0,31.2,24.1,13.8,0000.0,0007.07,0010.03,0006.74
2023-01-28 20:55:00,,0817.6,5.01,0.00,22.3,20.9,00.0,31.2,24.1,13.8,0000.0,0007.10,0010.11,0006.77
2023-01-28 20:56:00,,0817.6,4.99,0.00,22.3,20.8,00.0,31.2,24.1,13.8,0000.0,0007.10,0010.04,0006.78
2023-01-28 20:57:00,,0817.6,5.01,0.00,22.3,20.8,00.0,31.2,24.1,13.9,0000.0,0007.10,0010.04,0006.80
2023-01-28 20:58:00,,0817.7,5.00,0.00,22.3,20.8,00.0,31.2,24.0,14.1,0000.0,0007.11,0010.08,0006.80
2023-01-28 20:59:00,,0817.7,4.99,0.00,22.3,20.7,00.0,31.2,24.0,14.0,0000.0,0007.12,0010.11,0006.80
